COSMOS 1716

Satellite information

Favourite Embed

Satellite Type and Status

PAYLOADIN ORBIT

Key statistics

Satellite COSMOS 1716 at a glance.

Uptime

14366

Days in orbit

Revolutions

≈ 12.5

Per day

Orbit

LEO

Low Earth Orbit

Inclination

74.0

Latest

Satellite identification and parameters

Extended collection of information and parameters for COSMOS 1716.

Object identification

Identified? True

Debris? False

Object name: COSMOS 1716

International designator: 1986-002A

Object number (NORAD): 16449

Object ID (CCSDS): 16449

Country: COMMONWEALTH OF INDEPENDENT STATES (CIS)

Current information (Y/N): Y

RCS size: MEDIUM

Orbital parameters

Period: 115.485 minutes

Inclination: 73.9892 deg

SMA: 7855.576 km

Apoapsis: 1491.334 km

Periapsis: 1463.549 km

RAAN: 214.3345 deg

Eccentricy: 0.0017685

Argument of periapsis: 7.0606 deg

Mean anomaly: 108.0135 deg

Mean motion: 12.46911668 rev/day

Mean motion (dot): -0.00000012 rev/day2

B* drag term: 0.000025662 1/REarth

Two-line elements (TLE)

Creation date: May 10, 2025, 2:32 a.m.

Reference frame: TEME

Reference center: EARTH

Epoch: May 9, 2025, 4:49 p.m. UTC

TLE line 0: 0 COSMOS 1716

TLE line 1: 1 16449U 86002A 25129.70133282 -.00000012 00000-0 25662-4 0 9994

TLE line 2: 2 16449 73.9892 214.3345 0017685 7.0606 108.0135 12.46911668790336

Live tracking on map

Real-time ground track for satellite COSMOS 1716.

In-orbit conjunctions

There are no conjunctions computed for COSMOS 1716, at the moment. Check back to stay up to date, as we update our databases every day.

Go to all conjunctions

Associated space launch

Military communications satellites

COSMOS 1716 was lifted into orbit during the mission ‘Kosmos-3M | Strela-1M 297-304’, on board a Kosmos-3M space rocket.

The launch took place on Jan. 9, 1986, 2:48 a.m. from 132/2.

For more information about the launch, click the button.

Launch to space Kosmos-3M | Strela-1M 297-304
Kosmos-3M | Strela-1M 297-304

Agency: N/A

Status: Launch Successful

Launch date: Jan. 9, 1986, 2:48 a.m. UTC

Rocket: Kosmos-3M

Launch pad: 132/2

Location: Plesetsk Cosmodrome, Russian Federation

...

Latest news about this satellite

There are no fresh news available about this satellite. Check back as we update our databases every day.


Newsletter sign-up

Weekly statistics, charts and insights to help you stay on top of the space industry.